Location: Sihaung
(22.8641°N, 94.0549°E)
Time: 11:09:44
(UTC+00:00)

Cosmos 1862 Rocket - Pass Details

Date: 03 March 2021
Orbit: 603 x 634 km, 82.5° (Epoch: 16 April)

Event Time Altitude Azimuth Distance (km) Brightness Sun altitude
Rises 12:37:08 0° 358° (N) 2,926 7.0 -12.1°
Reaches altitude 10° 12:39:23 10° 1° (N) 2,014 6.2 -12.6°
Maximum altitude 12:43:50 69° 85° (E) 675 3.5 -13.6°
Drops below altitude 10° 12:48:14 10° 168° (SSE) 1,993 6.1 -14.6°
Sets 12:50:28 0° 171° (S) 2,892 6.9 -15.2°
